Weather History for KMGW - January, 2000

Change the Weather History Date:

Saturday, January 15, 2000

  Actual Average Record
Temperature  
Mean Temperature 28 °F 31 °F  
Max Temperature 46 °F 39 °F 67 °F (1995)
Min Temperature 14 °F 24 °F -14 °F (1972)
Degree Days  
Heating Degree Days 36 34  
Month to date heating degree days 507  
Since 1 July heating degree days 2491  
Cooling Degree Days 0 0  
Month to date cooling degree days 0  
Year to date cooling degree days 0  
Moisture  
Dew Point 13 °F    
Average Humidity 53    
Maximum Humidity 88    
Minimum Humidity 24    
Precipitation  
Precipitation 0.00 in 0.09 in 0.74 in (1959)
Month to date precipitation 1.35  
Year to date precipitation 1.35  
Sea Level Pressure  
Sea Level Pressure 30.47 in    
Wind  
Wind Speed 4 mph (SSW)    
Max Wind Speed 12 mph    
Max Gust Speed 22 mph    
Visibility 10 miles    
Events      
T = Trace of Precipitation, MM = Missing Value Source: NWS Daily Summary

Daily Weather History Graph

Daily Weather History Graph

Search for Another Location

Airport or City:

Trip Planner

Search our weather history database for the weather conditions in past years. The results will help you decide how hot, cold, wet, or windy it might be!

Date:

Astronomy

Jan. 15, 2000 Rise Set
Actual Time 7:38 AM EST 5:19 PM EST
Civil Twilight 7:09 AM EST 5:48 PM EST
Nautical Twilight 6:36 AM EST 6:22 PM EST
Astronomical Twilight 6:03 AM EST 6:54 PM EST
Moon 12:46 PM EST (1/15) 1:19 AM EST (1/15)
Length of Visible Light 10h 39m
Length of Day
9h 40m
Waxing Gibbous, 63% of the Moon is Illuminated
Jan 15
Waxing Gibbous
Jan 20
Full
Jan 28
Last Quarter
Feb 5
New
Feb 12
First Quarter

Hourly Weather History & Observations

Time (EST) Temp. Windchill Dew Point Humidity Pressure Visibility Wind Dir Wind Speed Gust Speed Precip Events Conditions
12:53 AM 15.1 °F - 10.9 °F 84% 30.69 in 10.0 mi Calm Calm - N/A   Mostly Cloudy
1:53 AM 14.0 °F - 10.9 °F 88% 30.67 in 10.0 mi Calm Calm - N/A   Mostly Cloudy
2:53 AM 16.0 °F - 10.9 °F 81% 30.68 in 10.0 mi Calm Calm - N/A   Overcast
3:53 AM 15.1 °F 6.4 °F 10.9 °F 84% 30.66 in 10.0 mi ESE 5.8 mph - N/A   Overcast
4:53 AM 17.1 °F - 10.9 °F 77% 30.65 in 10.0 mi Calm Calm - N/A   Overcast
5:53 AM 18.0 °F 12.7 °F 12.9 °F 81% 30.65 in 10.0 mi SSW 3.5 mph - N/A   Overcast
6:53 AM 19.9 °F - 10.0 °F 65% 30.62 in 10.0 mi Calm Calm - N/A   Mostly Cloudy
7:53 AM 21.9 °F - 10.0 °F 60% 30.62 in 10.0 mi Calm Calm - N/A   Mostly Cloudy
8:53 AM 23.0 °F 17.0 °F 14.0 °F 68% 30.59 in 10.0 mi SE 4.6 mph - N/A   Mostly Cloudy
9:53 AM 28.0 °F 20.8 °F 12.9 °F 53% 30.57 in 10.0 mi South 6.9 mph - N/A   Overcast
10:53 AM 30.9 °F 22.8 °F 12.0 °F 46% 30.54 in 10.0 mi South 9.2 mph 17.3 mph N/A   Mostly Cloudy
11:53 AM 33.1 °F 24.4 °F 12.9 °F 43% 30.48 in 10.0 mi South 11.5 mph - N/A   Mostly Cloudy
12:53 PM 36.0 °F 30.3 °F 16.0 °F 44% 30.43 in 10.0 mi SSW 6.9 mph - N/A   Overcast
1:53 PM 37.9 °F 30.9 °F 17.1 °F 43% 30.40 in 10.0 mi SSW 10.4 mph - N/A   Overcast
2:53 PM 39.0 °F 32.3 °F 17.1 °F 41% 30.38 in 10.0 mi SW 10.4 mph - N/A   Overcast
3:53 PM 39.0 °F 32.8 °F 18.0 °F 43% 30.38 in 10.0 mi SSW 9.2 mph - N/A   Clear
4:53 PM 37.9 °F 34.4 °F 19.0 °F 47% 30.36 in 10.0 mi South 4.6 mph - N/A   Overcast
5:53 PM 37.9 °F 32.7 °F 18.0 °F 45% 30.35 in 10.0 mi South 6.9 mph - N/A   Overcast
6:53 PM 39.0 °F 32.8 °F 16.0 °F 39% 30.33 in 10.0 mi South 9.2 mph - N/A   Mostly Cloudy
7:53 PM 39.9 °F 35.1 °F 12.0 °F 32% 30.31 in 10.0 mi SSW 6.9 mph - N/A   Mostly Cloudy
8:53 PM 42.1 °F 35.7 °F 10.0 °F 27% 30.28 in 10.0 mi SSW 11.5 mph - N/A   Overcast
9:53 PM 43.0 °F 37.7 °F 10.9 °F 27% 30.25 in 10.0 mi SSW 9.2 mph - N/A   Overcast
10:53 PM 43.0 °F 36.8 °F 10.9 °F 27% 30.22 in 10.0 mi SW 11.5 mph - N/A   Overcast
11:53 PM 46.0 °F 41.0 °F 10.9 °F 24% 30.19 in 10.0 mi SSW 10.4 mph 21.9 mph N/A   Overcast